Regional Weather Roundup
Issued by NWS

Home | Current Version | Previous Version | Text Only | Print | Product List | Glossary Off
Versions: 1 2 3 4 5 6 7 8 9 10 11 12 13 14 15 16 17 18 19 20 21 22 23 24 25 26 27 28 29 30 31 32 33 34 35 36 37 38 39 40 41 42 43 44 45 46 47 48 49 50

000
ASUS43 KOAX 252210
RWRNE

WEATHER ROUNDUP FOR NEBRASKA
NATIONAL WEATHER SERVICE OMAHA NE
500 PM CDT THU AUG 25 2016

NOTES: SATELLITE DATA IS BEING USED TO AUGMENT CLOUD COVER ABOVE
       12000 FEET.
       "FAIR" INDICATES FEW OR NO CLOUDS BELOW 12,000 FEET WITH NO
       SIGNIFICANT WEATHER AND/OR OBSTRUCTIONS TO VISIBILITY.

  * THESE STATIONS DO NOT REPORT WEATHER SUCH AS RAIN...SNOW OR FOG.

NEZ001>004-019>022-054>056-252300-
NEBRASKA PANHANDLE

CITY           SKY/WX    TMP DP  RH WIND       PRES   REMARKS
SCOTTSBLUFF    SUNNY     71  46  40 NE7       30.22F
ALLIANCE       MOSUNNY   69  44  40 VRB6      30.22F
CHADRON        MOSUNNY   69  44  40 S6        30.22F
KIMBALL        MOSUNNY   69  44  41 SE8       30.23F
SIDNEY         PTSUNNY   76  43  30 VRB6      30.22F
$$

NEZ057>060-069>072-079>082-252300-
SOUTHWEST NEBRASKA

CITY           SKY/WX    TMP DP  RH WIND       PRES   REMARKS
NORTH PLATTE   SUNNY     79  50  36 S8        30.17F
IMPERIAL       SUNNY     78  42  27 SE13      30.16F
LEXINGTON      SUNNY     78  47  33 NE6       30.16F
MCCOOK         SUNNY     79  50  36 E10       30.15F
OGALLALA       SUNNY     77  42  28 SE5       30.18F
$$

NEZ005>010-023>029-035>040-094-252300-
NORTH CENTRAL NEBRASKA

CITY           SKY/WX    TMP DP  RH WIND       PRES   REMARKS
VALENTINE      SUNNY     73  45  36 NW12      30.20F
AINSWORTH      SUNNY     72  50  45 N5        30.19F
BROKEN BOW     SUNNY     77  52  41 N6        30.17F
O`NEILL        SUNNY     76  47  35 NW10      30.18S
ORD            SUNNY     77  49  37 E6        30.15F
THEDFORD       MOSUNNY   76  47  36 E5        30.20F
$$

NEZ041-046>049-061>064-073>077-083>087-252300-
SOUTH CENTRAL NEBRASKA

CITY           SKY/WX    TMP DP  RH WIND       PRES   REMARKS
GRAND ISLAND   SUNNY     76  53  44 NE9       30.16S
AURORA         SUNNY     77  57  50 NE8       30.15S
HASTINGS       PTSUNNY   75  55  49 NE9       30.16S
HEBRON         PTSUNNY   74  60  62 NE6       30.12F
HOLDREGE       MOSUNNY   75  52  44 NE7       30.16F
KEARNEY *      PTSUNNY   75  54  46 NE7       30.15S
YORK           PTSUNNY   75  57  53 NE7       30.15S
$$

NEZ011>018-030>034-042>045-252300-
NORTHEAST NEBRASKA

CITY           SKY/WX    TMP DP  RH WIND       PRES   REMARKS
NORFOLK        MOSUNNY   75  54  47 MISG      30.15F
ALBION         MOSUNNY   74  54  49 NE6       30.17S
BLAIR          CLOUDY    76  59  56 N9        30.12F
FREMONT        SUNNY     75  58  55 N6        30.14S
TEKAMAH        SUNNY     77  60  55 N8        30.13S
WAYNE          MOSUNNY   74  57  55 NW5       30.16S
$$

NEZ050>053-065>068-078-088>093-252300-
SOUTHEAST NEBRASKA

CITY           SKY/WX    TMP DP  RH WIND       PRES   REMARKS
LINCOLN        PTSUNNY   78  59  51 NE9       30.13F
OMAHA EPPLEY   CLOUDY    78  59  51 CALM      30.12S
BEATRICE       SUNNY     75  60  61 NE6       30.12S
FALLS CITY     MOSUNNY   78  64  61 NE9       30.08F
NEBRASKA CITY  MOSUNNY   74  60  61 N7        30.12F
PLATTSMOUTH    MOSUNNY   75  62  62 N3        30.12F
$$

NEZ044-045-051>053-067-252300-
OMAHA AREA

CITY           SKY/WX    TMP DP  RH WIND       PRES   REMARKS
OMAHA EPPLEY   CLOUDY    78  59  51 CALM      30.12S
BLAIR          CLOUDY    76  59  56 N9        30.12F
FREMONT        SUNNY     75  58  55 N6        30.14S
MILLARD        CLOUDY    76  58  54 NE3       30.11F
OFFUTT AFB     PTSUNNY   76  60  57 NE3       30.11F
PLATTSMOUTH    MOSUNNY   75  62  62 N3        30.12F
WAHOO          FAIR      75  60  59 N6        30.13S
$$



USA.gov is the U.S. government's official web portal to all federal, state and local government web resources and services.